International Virtual Aviation Organisation

Russian Federation and Kazakhstan MCD

 

Карточка аэропорта UATE

Внимание!
Информация на этой странице в стадии наполнения.
Если вы не увидели какой-то информации, или заметили неточность - пожалуйста сообщите нам!
Спасибо!
Команда RU-STAFF
Название аэропортаАктау
Название аэропорта (англ.)Aktau
Превышение75 ft. (22.9 m.)
Координаты43°51.138', 51°5.3639999999999'
Высота перехода2050
Эшелон переходаFL40
Коды ответчика3460-3467, 3550-3557
Зона ОрВДАктобе РПИ (UATT)
Данные METARUATE 170900Z 14004MPS CAVOK 08/M00 Q1037 R12/0///70 NOSIG RMK QFE776/1034
Проноз погоды (TAF)UATE 170502Z 1706/1806 12006MPS CAVOK TX09/1709Z TNM02/1802Z= UATT 170500Z 1706/1806 26003MPS 9999 SCT011 TXM07/1712Z TNM15/1706Z TEMPO 1706/1708 3100 BR OVC003 FM172000 23005MPS 3100 -SN BR BKN011
NOTAMshow/hide NOTAM
AWOS   TABLE

Информация о ВПП

ВПП Длина ВПП (м.) Покрытие Курс ВПП Частота ILS
123052Асфальтобетон122109.5
303052Асфальт302111.1

Диспетчерские позиции

Позывной Наименование органа УВД Частота
UATE_APPАктау Поход134.3
UATE_TWRАктау Вышка120.7



Спутниковое изображение